CW6259 Weather Reports


Display with metric or nautical units.
time (UTC)temp
F
wind
direction
speed
MPH
gust
MPH
rain 1hr
in
rain 24hr
in
rain mn
in
humidity
%
barometer
mb
20260505083536 53 0.0 1.0 0.00 0.00 0.00 88 1012.4
20260505083056 54 0.0 1.0 0.00 0.00 0.00 88 1012.4
20260505082516 54 0.0 1.0 0.00 0.00 0.00 87 1012.4
20260505082016 54 0.0 1.0 0.00 0.00 0.00 87 1012.4
20260505081516 54 0.0 4.0 0.00 0.00 0.00 87 1012.3
20260505081016 54 0.0 3.0 0.00 0.00 0.00 87 1012.3
20260505080516 54 0.0 3.0 0.00 0.00 0.00 87 1012.3
20260505080016 54 0.0 3.0 0.00 0.00 0.00 87 1012.3
20260505075516 54 0.0 1.0 0.00 0.00 0.00 87 1012.3
20260505075157 54 0.0 2.0 0.00 0.00 0.00 86 1012.4
20260505074516 55 0.0 1.0 0.00 0.00 0.00 86 1012.3
20260505074016 55 0.0 2.0 0.00 0.00 0.00 86 1012.2
20260505073516 55 0.0 2.0 0.00 0.00 0.00 86 1012.2
20260505073016 55 0.0 2.0 0.00 0.00 0.00 85 1012.2
20260505072536 55 0.0 2.0 0.00 0.00 0.00 85 1012.1
20260505072015 55 0.0 1.0 0.00 0.00 0.00 85 1011.9
20260505071515 55 0.0 1.0 0.00 0.00 0.00 85 1011.8
20260505071036 56 0.0 2.0 0.00 0.00 0.00 84 1011.8
20260505070536 56 0.0 1.0 0.00 0.00 0.00 84 1011.8
20260505070017 56 0.0 1.0 0.00 0.00 0.00 84 1011.8
20260505065516 56 0.0 2.0 0.00 0.00 0.00 83 1011.6
20260505065016 56 0.0 1.0 0.00 0.00 0.00 83 1011.6
20260505064536 57 0.0 1.0 0.00 0.00 0.00 82 1011.6
20260505064016 57 0.0 4.0 0.00 0.00 0.00 82 1011.5
20260505063516 57 0.0 0.0 0.00 0.00 0.00 81 1011.6
20260505063016 57 0.0 0.0 0.00 0.00 0.00 81 1011.5
20260505062515 58 0.0 4.0 0.00 0.00 0.00 81 1011.5
20260505062015 58 0.0 2.0 0.00 0.00 0.00 80 1011.5
20260505061516 58 0.0 1.0 0.00 0.00 0.00 80 1011.3
20260505061016 58 0.0 1.0 0.00 0.00 0.00 80 1011.2
20260505060515 58 0.0 2.0 0.00 0.00 0.00 80 1011.1
20260505060036 59 0.0 0.0 0.00 0.00 0.00 79 1011.0
20260505055516 59 0.0 0.0 0.00 0.00 0.00 79 1010.9
20260505055037 59 0.0 1.0 0.00 0.00 0.00 78 1010.9
20260505054537 59 0.0 0.0 0.00 0.00 0.00 78 1010.9
20260505054018 60 0.0 3.0 0.00 0.00 0.00 77 1010.9
20260505053517 60 0.0 2.0 0.00 0.00 0.00 77 1010.9
20260505053017 60 0.0 1.0 0.00 0.00 0.00 77 1010.8
20260505052517 60 0.0 0.0 0.00 0.00 0.00 76 1010.7
20260505052038 61 0.0 0.0 0.00 0.00 0.00 76 1010.7
20260505051517 61 0.0 1.0 0.00 0.00 0.00 76 1010.7
20260505051018 61 0.0 0.0 0.00 0.00 0.00 75 1010.6
20260505050517 61 225 1.0 4.0 0.00 0.00 0.00 75 1010.6
20260505041517 64 225 1.0 3.0 0.00 0.00 0.00 71 1010.3
20260505041017 64 225 1.0 4.0 0.00 0.00 0.00 70 1010.2
20260505040537 65 225 1.0 8.0 0.00 0.00 0.00 70 1010.1
20260505040037 65 225 1.0 6.0 0.00 0.00 0.00 69 1010.0
20260505035517 65 225 3.0 8.0 0.00 0.00 0.00 68 1009.8
20260505035017 66 225 4.0 11.0 0.00 0.00 0.00 67 1009.7
20260505034517 66 225 4.0 10.0 0.00 0.00 0.00 67 1009.6
20260505034016 67 203 2.0 7.0 0.00 0.00 0.00 66 1009.6
20260505033517 67 225 3.0 9.0 0.00 0.00 0.00 64 1009.5
20260505033017 68 225 3.0 8.0 0.00 0.00 0.00 63 1009.5
20260505032517 68 225 3.0 11.0 0.00 0.00 0.00 62 1009.4
20260505032037 69 225 3.0 8.0 0.00 0.00 0.00 61 1009.4
20260505031516 69 225 1.0 5.0 0.00 0.00 0.00 60 1009.3
20260505031017 69 225 1.0 7.0 0.00 0.00 0.00 59 1009.3
20260505030537 70 225 2.0 6.0 0.00 0.00 0.00 58 1009.3
20260505030017 70 225 1.0 7.0 0.00 0.00 0.00 57 1009.2
20260505025516 70 203 1.0 7.0 0.00 0.00 0.00 57 1009.2
20260505025016 70 225 1.0 5.0 0.00 0.00 0.00 57 1009.1
20260505024516 71 0.0 2.0 0.00 0.00 0.00 56 1009.1
20260505024016 71 0.0 3.0 0.00 0.00 0.00 56 1009.0
20260505023516 72 0.0 3.0 0.00 0.00 0.00 55 1009.1
20260505023037 72 0.0 3.0 0.00 0.00 0.00 54 1009.1
20260505022517 73 0.0 0.0 0.00 0.00 0.00 54 1009.0
20260505022036 73 0.0 0.0 0.00 0.00 0.00 53 1009.0
20260505021516 74 0.0 1.0 0.00 0.00 0.00 53 1009.1
20260505021016 74 203 1.0 5.0 0.00 0.00 0.00 52 1009.1
20260505020516 75 225 3.0 10.0 0.00 0.00 0.00 51 1009.1
20260505020016 75 225 1.0 7.0 0.00 0.00 0.00 51 1009.1
20260505015516 75 0.0 3.0 0.00 0.00 0.00 52 1009.0
20260505015017 75 225 1.0 4.0 0.00 0.00 0.00 51 1009.0
20260505014516 76 225 1.0 5.0 0.00 0.00 0.00 51 1009.1
20260505014016 76 225 1.0 5.0 0.00 0.00 0.00 50 1009.1
20260505013516 76 225 1.0 4.0 0.00 0.00 0.00 49 1009.1
20260505013016 76 225 2.0 6.0 0.00 0.00 0.00 48 1009.1
20260505012516 76 0.0 3.0 0.00 0.00 0.00 47 1009.1
20260505012016 77 225 2.0 5.0 0.00 0.00 0.00 47 1009.1
20260505011517 77 225 1.0 4.0 0.00 0.00 0.00 46 1009.2
20260505011016 77 0.0 3.0 0.00 0.00 0.00 46 1009.2
20260505010536 77 0.0 2.0 0.00 0.00 0.00 46 1009.2
20260505010016 77 0.0 3.0 0.00 0.00 0.00 45 1009.2
20260505005516 77 0.0 1.0 0.00 0.00 0.00 45 1009.2
20260505005016 77 248 1.0 4.0 0.00 0.00 0.00 45 1009.3
20260505004516 77 225 1.0 5.0 0.00 0.00 0.00 44 1009.2
20260505004016 78 225 1.0 4.0 0.00 0.00 0.00 45 1009.3
20260505003516 78 225 1.0 7.0 0.00 0.00 0.00 45 1009.3
20260505003016 78 225 1.0 6.0 0.00 0.00 0.00 42 1009.3
20260505002516 78 225 1.0 5.0 0.00 0.00 0.00 42 1009.3
20260505002016 79 225 1.0 7.0 0.00 0.00 0.00 41 1009.4
20260505001516 80 225 2.0 7.0 0.00 0.00 0.00 40 1009.4
20260505001016 81 225 1.0 6.0 0.00 0.00 0.00 40 1009.5
20260505000516 81 0.0 4.0 0.00 0.00 0.00 40 1009.5
20260505000016 81 225 1.0 8.0 0.00 0.00 0.00 40 1009.4
20260504235516 83 225 1.0 7.0 0.00 0.00 0.00 37 1009.5
20260504235016 83 0.0 5.0 0.00 0.00 0.00 38 1009.5
20260504234516 83 0.0 2.0 0.00 0.00 0.00 40 1009.6
20260504234016 83 0.0 4.0 0.00 0.00 0.00 39 1009.6
20260504233516 83 0.0 0.0 0.00 0.00 0.00 40 1009.7
20260504233036 83 225 1.0 6.0 0.00 0.00 0.00 38 1009.6
20260504232516 83 0.0 4.0 0.00 0.00 0.00 37 1009.6
20260504232015 83 0.0 1.0 0.00 0.00 0.00 38 1009.7
20260504231516 82 0.0 0.0 0.00 0.00 0.00 39 1009.6
20260504231016 82 225 1.0 8.0 0.00 0.00 0.00 37 1009.7
20260504230516 82 0.0 6.0 0.00 0.00 0.00 38 1009.7
20260504230016 82 225 1.0 7.0 0.00 0.00 0.00 40 1009.7
20260504225516 82 0.0 6.0 0.00 0.00 0.00 40 1009.8
20260504225036 82 0.0 1.0 0.00 0.00 0.00 38 1009.9
20260504224516 82 225 1.0 7.0 0.00 0.00 0.00 38 1010.0
20260504224016 81 0.0 4.0 0.00 0.00 0.00 37 1010.0
20260504223516 81 225 1.0 6.0 0.00 0.00 0.00 37 1010.0
20260504223016 81 225 1.0 5.0 0.00 0.00 0.00 37 1010.1
20260504222516 81 225 1.0 5.0 0.00 0.00 0.00 35 1010.2
20260504222016 81 225 1.0 6.0 0.00 0.00 0.00 35 1010.3
20260504221516 81 0.0 5.0 0.00 0.00 0.00 38 1010.3
20260504221016 80 0.0 1.0 0.00 0.00 0.00 38 1010.3
20260504220536 79 203 2.0 8.0 0.00 0.00 0.00 37 1010.4
20260504220016 80 225 1.0 6.0 0.00 0.00 0.00 39 1010.5
20260504215515 80 225 1.0 9.0 0.00 0.00 0.00 39 1010.5
20260504215036 80 0.0 4.0 0.00 0.00 0.00 42 1010.5
20260504214516 79 225 1.0 6.0 0.00 0.00 0.00 43 1010.6
20260504214036 79 0.0 6.0 0.00 0.00 0.00 47 1010.6
20260504213536 79 225 2.0 9.0 0.00 0.00 0.00 46 1010.6
20260504213016 79 0.0 2.0 0.00 0.00 0.00 49 1010.6
20260504212516 79 225 1.0 6.0 0.00 0.00 0.00 46 1010.6
20260504212056 78 248 1.0 5.0 0.00 0.00 0.00 48 1010.7
20260504211516 78 270 1.0 5.0 0.00 0.00 0.00 46 1010.7
20260504211035 78 225 3.0 10.0 0.00 0.00 0.00 44 1010.7
20260504210515 78 225 1.0 7.0 0.00 0.00 0.00 44 1010.7
20260504210015 78 225 2.0 9.0 0.00 0.00 0.00 46 1010.7
20260504205515 78 225 1.0 8.0 0.00 0.00 0.00 45 1010.7
20260504205015 78 225 1.0 6.0 0.00 0.00 0.00 45 1010.7
20260504204515 78 225 1.0 3.0 0.00 0.00 0.00 43 1010.7
20260504204015 77 203 2.0 8.0 0.00 0.00 0.00 40 1010.8
20260504203515 77 248 1.0 5.0 0.00 0.00 0.00 43 1010.8
20260504203018 77 225 1.0 6.0 0.00 0.00 0.00 41 1010.7
20260504202515 76 270 1.0 8.0 0.00 0.00 0.00 41 1010.8
20260504202037 76 225 2.0 11.0 0.00 0.00 0.00 45 1010.8
20260504201517 76 225 3.0 11.0 0.00 0.00 0.00 46 1010.8
20260504201017 75 225 1.0 6.0 0.00 0.00 0.00 52 1010.8
20260504200518 75 225 1.0 6.0 0.00 0.00 0.00 48 1010.8
20260504200017 76 225 3.0 9.0 0.00 0.00 0.00 46 1010.8
20260504195537 76 225 1.0 5.0 0.00 0.00 0.00 46 1010.7
20260504195037 76 248 1.0 4.0 0.00 0.00 0.00 46 1010.8
20260504194517 75 225 1.0 5.0 0.00 0.00 0.00 45 1010.7
20260504194018 75 225 3.0 8.0 0.00 0.00 0.00 44 1010.7
20260504193517 75 225 2.0 9.0 0.00 0.00 0.00 42 1010.8
20260504193037 76 225 2.0 8.0 0.00 0.00 0.00 41 1010.8
20260504192517 76 225 1.0 5.0 0.00 0.00 0.00 41 1010.9
20260504192037 76 0.0 3.0 0.00 0.00 0.00 41 1010.9
20260504191517 76 225 1.0 7.0 0.00 0.00 0.00 43 1010.9
20260504191017 76 0.0 3.0 0.00 0.00 0.00 44 1011.0
20260504190517 76 225 1.0 5.0 0.00 0.00 0.00 45 1011.0
20260504190017 76 0.0 3.0 0.00 0.00 0.00 43 1011.1
20260504185517 75 0.0 2.0 0.00 0.00 0.00 45 1011.1
20260504185017 75 0.0 3.0 0.00 0.00 0.00 47 1011.1
20260504184517 75 0.0 3.0 0.00 0.00 0.00 47 1011.1
20260504184017 74 0.0 3.0 0.00 0.00 0.00 47 1011.1
20260504183516 74 225 1.0 4.0 0.00 0.00 0.00 46 1011.0
20260504183017 74 0.0 3.0 0.00 0.00 0.00 44 1011.1
20260504182517 74 0.0 4.0 0.00 0.00 0.00 47 1011.1
20260504182017 74 0.0 2.0 0.00 0.00 0.00 46 1011.0
20260504181517 73 0.0 3.0 0.00 0.00 0.00 49 1011.1
20260504181017 73 0.0 4.0 0.00 0.00 0.00 49 1011.0
20260504180517 72 0.0 4.0 0.00 0.00 0.00 50 1011.0
20260504180037 72 0.0 4.0 0.00 0.00 0.00 50 1011.0
20260504175517 71 225 1.0 6.0 0.00 0.00 0.00 50 1011.0
20260504175016 72 225 1.0 5.0 0.00 0.00 0.00 49 1011.0
20260504174516 71 0.0 3.0 0.00 0.00 0.00 50 1011.1
20260504174017 71 0.0 3.0 0.00 0.00 0.00 52 1011.0
20260504173517 71 0.0 4.0 0.00 0.00 0.00 51 1011.0
20260504173017 70 0.0 4.0 0.00 0.00 0.00 51 1011.0
20260504172516 70 0.0 1.0 0.00 0.00 0.00 54 1011.1
20260504172016 70 0.0 1.0 0.00 0.00 0.00 54 1011.1
20260504171516 69 0.0 2.0 0.00 0.00 0.00 54 1011.0
20260504171017 69 0.0 0.0 0.00 0.00 0.00 56 1011.0
20260504170516 68 0.0 1.0 0.00 0.00 0.00 54 1011.0
20260504151036 59 0.0 0.0 0.00 0.00 0.00 78 1010.4
20260504150516 58 0.0 0.0 0.00 0.00 0.00 79 1010.2
20260504141017 55 0.0 0.0 0.00 0.00 0.00 83 1010.0
20260504140516 55 0.0 0.0 0.00 0.00 0.00 82 1010.0
20260504130516 54 0.0 0.0 0.00 0.00 0.00 76 1009.4
20260504110517 57 0.0 0.0 0.00 0.00 0.00 70 1009.5
20260504100517 59 0.0 0.0 0.00 0.00 0.00 66 1009.5